Погода в Пречистом

Россия / Смоленская область     55°30′31″N   32°21′44″E
темп.,
°C
ветер,
м/с
пор.,
м/с
влажн.,
%
обл.,
%
осадки,
мм/ч
давл.,
гПа
погр.,
м
8 мая, сб
сб800:00+6ю41094100 1.4 10071111
03:00+7ю41094100 2.4 1005648
06:00+7ююз3796100 0.1 1005626
09:00+5сз2492100 0.2 1006264
12:00+6ссз478687 0.1 1007754
15:00+8ссз5766100 0.2 10061244
18:00+6сз4872100 0.1 10081206
21:00+4сз51172100 0.1 1009818
9 мая, вс
вс900:00+3зсз4117797 0.0 1011639
03:00+1зсз4119152 0.0 1013585
06:00+1сз412909 0.0 1016687
09:00+6сз59565 0.0 10181121
12:00+10сз573964 0.0 10192184
15:00+11сз573313 0.0 10212514
18:00+12сз364212 0.0 10222285
21:00+5з22685 0.0 102414
10 мая, пн
пн1000:00+3зюз22765 0.0 102631
03:00+3ююз24725 0.0 102761
06:00+3ю287355 0.0 1028175
09:00+10ююз485068 0.0 1029580
12:00+14юз4644100 0.0 10281256
15:00+16юз4445100 0.0 10281380
18:00+15ююз335413 0.0 10281205
21:00+9ю23805 0.0 102951
11 мая, вт
вт1100:00+7ю228297 0.0 103031
03:00+7ююв238170 0.0 103047
06:00+7ююв24815 0.0 103079
09:00+13юв245660 0.0 1030489
12:00+17юв35444 0.0 10291206
15:00+19юв34435 0.0 10271419
18:00+18вюв34535 0.0 10261307
21:00+11вюв39790 0.0 1027161
12 мая, ср
ср1200:00+9юв28815 0.0 1027152
03:00+8вюв25870 0.0 1026101
06:00+8в27853 0.0 1026158
09:00+15в49585 0.0 1024594
12:00+19вюв585674 0.0 10221419
15:00+13юв41086100 0.1 1022555
18:00+12вюв31089100 0.1 1022597
21:00+12юв4881100 0.1 1022794